Home   Weather   Escuintla   Past weeks

Flag for Guatemala Past Weather in Escuintla, Guatemala — Yesterday and Last 2 Weeks

Now
63 °F

Passing clouds.


Feels Like: 63 °F
Forecast: 66 / 89 °F
Wind: 9 mph from Northeast

Location: Guatemala Aeropuertola Aurora

Current Time: Dec 3, 2016 at 1:03:17 am

Latest Report: Dec 3, 2016 at 12:00 am


Visibility: N/A

Pressure: 30.27 "Hg

Humidity: 88%

Dew Point: 59 °F

Location of EscuintlaLocation

Past Weather in Escuintla — Graph

°F

Escuintla Temperature Yesterday

Maximum temperature yesterday: 79 °F (at 2:00 pm)
Minimum temperature yesterday: 59 °F (at 5:00 am)
Average temperature yesterday: 67 °F

High & Low Weather Summary for the Past Weeks

 TemperatureHumidityPressure
High79 °F (Dec 1, 2:00 pm)100% (Nov 29, 1:00 am)30.39 "Hg (Nov 29, 1:00 am)
Low54 °F (Nov 22, 1:00 am)39% (Dec 2, 2:00 pm)30.12 "Hg (Nov 28, 3:00 pm)
Average65 °F75%30.26 "Hg
* Reported Nov 18 12:00 am — Dec 3 12:00 am, Escuintla, Weather by CustomWeather, © 2016

Note: Actual official high and low records may vary slightly from our data, if they occured in-between our weather recording intervals... More about our weather records

Advertising

Escuintla Weather History for the Previous 24 Hours

Scroll right to see more
 ConditionsComfort  
Time TempWeatherWind HumidityBarometerVisibility
12:00 am
Sat, Dec 3
63 °FPassing clouds.9 mph88%30.27 "HgN/A
11:00 pm
Fri, Dec 2
63 °FPassing clouds.7 mph88%30.27 "HgN/A
10:00 pm64 °FClear.7 mph83%30.30 "Hg10 mi
9:00 pm66 °FPassing clouds.7 mph73%30.27 "Hg5 mi
8:00 pm66 °FPassing clouds.5 mph78%30.27 "Hg4 mi
7:00 pm68 °FPassing clouds.5 mph83%30.24 "Hg4 mi
6:00 pm70 °FPassing clouds.5 mph78%30.21 "Hg4 mi
5:00 pm72 °FPartly sunny.5 mph73%30.21 "Hg4 mi
4:00 pm75 °FScattered clouds.5 mph47%30.21 "Hg5 mi
3:00 pm77 °FScattered clouds.12 mph42%30.18 "HgN/A
2:00 pm79 °FScattered clouds.9 mph39%30.21 "HgN/A
1:00 pm77 °FPassing clouds.9 mph51%30.24 "HgN/A
10:00 am72 °FSunny.12 mph65%30.33 "Hg10 mi
9:00 am68 °FSunny.9 mph69%30.33 "Hg10 mi
8:00 am63 °FSunny.9 mph88%30.33 "Hg10 mi
7:00 am59 °FPassing clouds.7 mph94%30.30 "HgN/A
6:00 am59 °FFog.9 mph100%30.30 "Hg2 mi
5:00 am59 °FPassing clouds.7 mph100%30.27 "HgN/A
4:00 am61 °FPassing clouds.7 mph94%30.24 "HgN/A
3:00 am61 °FPassing clouds.9 mph88%30.24 "HgN/A
2:00 am63 °FClear.5 mph88%30.27 "Hg10 mi
1:00 am63 °FClear.7 mph88%30.27 "Hg10 mi
Weather by CustomWeather, © 2016

See weather overviewHow to use our weather pages